Regional Weather Roundup
Issued by NWS Charleston, SC

Current Version | Previous Version | Text Only | Print | Product List | Glossary On
Versions: 1 2 3 4 5 6 7 8 9 10 11 12 13 14 15 16 17 18 19 20 21 22 23 24 25 26 27 28 29 30 31 32 33 34 35 36 37 38 39 40 41 42 43 44 45 46 47 48 49 50
000 ASUS42 KCHS 290825 RWRCHS REGIONAL WEATHER ROUNDUP NATIONAL WEATHER SERVICE CHARLESTON SC 400 AM EDT FRI AUG 29 2014 NOTE: "FAIR" INDICATES FEW OR NO CLOUDS BELOW 12,000 FEET WITH NO SIGNIFICANT WEATHER AND/OR OBSTRUCTIONS TO VISIBILITY. NOT ALL STATIONS ARE QUALITY CONTROLLED BY THE NATIONAL WEATHER SERVICE. USE DATA WITH CAUTION...ESPECIALLY DEWPOINT OBSERVATIONS. SCZ027-030-031-034>040-042>050-290900- ...SOUTH CAROLINA... CITY SKY/WX TMP DP RH WIND PRES REMARKS N CHARLESTON CLEAR 70 67 90 CALM 30.03F WATERFRONT PRK N/A 79 N/A N/A CALM N/A FORT JOHNSON NOT AVBL MOUNT PLEASANT LGT RAIN 68 66 94 CALM 30.03S JOHNS ISLAND MOSUNNY 70 70 100 CALM 30.03S PINOPOLIS N/A 75 70 83 SW3 29.96S MONCKS CORNER N/A 68 68 100 CALM 30.03S SUMMERVILLE FAIR 64 64 100 CALM 30.04S BEAUFORT MCAS CLEAR 72 70 93 CALM 30.02F BEAUFORT ARPT FAIR 73 73 100 CALM 30.02S HILTON HEAD IS PTCLDY 73 72 94 CALM 30.03S GEORGETOWN NOT AVBL WALTERBORO SUNNY 64 N/A N/A CALM 30.04S ORANGEBURG CLEAR 67 63 87 CALM 30.04F BARNWELL FAIR 66 64 94 CALM 30.05S AIKEN FAIR 72 70 94 SW3 30.07F MANNING FAIR 70 N/A N/A CALM 30.04S KINGSTREE NOT AVBL COLUMBIA CLEAR 72 62 71 CALM 30.03S SUMTER CLEAR 70 66 86 SW3 30.03S FLORENCE CLEAR 70 65 84 CALM 30.03S MYRTLE BEACH CLEAR 73 66 78 W3 30.04S N MYRTLE BEACH CLEAR 72 68 87 CALM 30.03F $$ GAZ063-065-086>088-099>101-113>116-118-119-134-136>141-150-290900- ...GEORGIA... CITY SKY/WX TMP DP RH WIND PRES REMARKS SAVANNAH ARPT PTCLDY 71 68 90 N3 30.02F HUNTER AAF CLEAR 71 70 98 CALM 30.00F FORT STEWART CLEAR 67 66 95 N3 30.01F STATESBORO NOT AVBL SYLVANIA SUNNY 67 67 100 CALM 30.04S FOG CLAXTON NOT AVBL THOMSON CLEAR 69 67 93 CALM 30.08S AUGUSTA-BUSH CLEAR 64 62 93 CALM 30.03S AUGUSTA-DANIEL CLEAR 72 65 78 CALM 30.04F SWAINSBORO FAIR 72 72 100 CALM 30.04S VIDALIA N/A 72 70 94 CALM 30.03F ALMA CLEAR 65 64 97 CALM 30.02S FOG WAYCROSS CLEAR 73 71 95 CALM 30.02S JESUP N/A 70 68 94 CALM 30.02F BRUNSWICK N/A 70 66 88 CALM 30.02F VSB 3/4 SAINT SIMONS CLEAR 74 71 91 CALM 30.01F $$ SCZ027-028-034-036>038-045-046-048>050-GAZ119-141-290900- ...LAKE AND SUPPLEMENTAL COASTAL OBSERVATIONS... STATION/POSITION TIME TEMP WIND PRES WAVE SWELL AIR SEA DIR/SP/G HT/PER HT/PER/DIR (UTC) (F) (DEG/KT/KT) (MB) (FT/S) (FT/S/D) UPR LAKE MARION NOT AVBL WINYAH BAY 0800 73 290/ 2 1017.0S LAKE MURRAY 0800 77 270/ 4/ 8 1016.3S ACE BASIN NERRS 0800 72 CALM 1016.0S FORT PULASKI 0800 79 220/ 3/ 4 1016.5F SAPELO ISLAND 0800 72 CALM 1016.0F $$ ANZ835-935-AMZ111-154-330-350-352-354-374-450-454-472-290900- ...C-MAN AND BUOY OBSERVATIONS... STATION/POSITION TIME TEMP WIND PRES WAVE SWELL AIR SEA DIR/SP/G HT/PER HT/PER/DIR (UTC) (F) (DEG/KT/KT) (MB) (FT/S) (FT/S/D) FOLLY BEACH CMAN 0800 81 170/ 5/ 6 1017.0F BUOY 41004 0800 82 83 170/ 8/ 10 1016.3F 4/ 8 3/ 8 BUOY 41008 0800 82 84 210/ 8/ 10 1016.3F 2/ 9 2/100/ 9 5E ST. MARYS GA 0800 84 N/A 3/ 9 FRYING PAN BUOY NOT AVBL BUOY 41025 0800 79 CALM / 2 1017.0F 4/ 9 3/130/ 9 CAPE LOOKOUT NC 0800 80 240/ 7/ 9 1016.9F BUOY 41002 0651 80 81 CALM / 2 1018.4F 4/ 8 5/120/ 8 BUOY 41010 0800 82 83 180/ 8/ 8 1016.8S 4/ 8 3/ 60/ 8 BUOY 41012 NOT AVBL ST AUGUSTINE FL 0800 82 160/ 10/ 11 1016.9S CAPERS NEARSHORE 0700 81 200/ 10/ 12 N/A FRIPP NEARSHORE NOT AVBL $$

USA.gov is the U.S. government's official web portal to all federal, state and local government web resources and services.